Below are the KEPs for the three satellites launched by North Korea
on 12-12-2012 as recorded by SpaceTrack.
The frequency of the beacon is reported to be around
470 MHz.
1 39028U 12072C 12362.51308239 .00004047 00000-0 24023-3 0 371
2 39028 097.4468 051.0207 0053643 123.1446 237.4947 15.10663435 2348
1 39027U 12072B 12362.54291324 .00001944 00000-0 12511-3 0 696
2 39027 097.4047 050.9133 0066508 122.9404 237.8244 15.07708100 2340
1 39026U 12072A 12362.79703003 .00002537 00000-0 15841-3 0 658
2 39026 097.4050 051.1870 0060948 119.5906 241.1408 15.08814309 2389
Below are the KEPs for the three satellites launched by North Korea
on 12-12-2012 as recorded by SpaceTrack.
The frequency of the beacon is reported to be around
470 MHz.
1 39026U 12072A 12355.36915072 .00003366 00000-0 20928-3 0 433
2 39026 097.4042 044.0195 0060555 144.6902 215.8370 15.08772455 1267
1 39027U 12072B 12354.91049961 .00001125 00000-0 74179-4 0 337
2 39027 097.4045 043.5628 0066226 148.6332 211.8874 15.07679345 1198
1 39028U 12072C 12355.09424240 .00005975 00000-0 35364-3 0 299
2 39028 097.4468 043.8003 0053038 148.1720 212.2815 15.10594600 1229
Below are the KEPs for the three satellites launched by North Korea
on 12-12-2012 as recorded by SpaceTrack.
The frequency of the beacon is reported to be around
470 MHz.
1 39026U 12072A 12348.86955756 .00003008 00000-0 18776-3 0 131
2 39026 097.4069 037.7500 0060099 166.4036 193.8802 15.08732851 280
1 39027U 12072B 12348.80446789 .00002378 00000-0 15252-3 0 110
2 39027 097.4062 037.6817 0065774 169.3857 190.8711 15.07663963 273
1 39028U 12072C 12348.94806060 .00005971 00000-0 35425-3 0 114
2 39028 097.4497 037.8213 0052915 169.0384 269.5959 15.10522295 299
Thanks to all who sent me a comment or congratulations last week.
What a response! I appreciate and thank you for your kind comments.
Merry Christmas to all.